TJS-9

Last updated on Wed Sep 17 2025 00:02:51 GMT+0000 (Coordinated Universal Time)

1 50574U 21135A 25259.54165450 -.00000318 00000+0 00000+0 0 9997 2 50574 0.0408 288.9244 0000700 310.8777 88.1348 1.00274840 13688
UTC large
Height (km)
Speed (km/s)
/
Latitude / Longitude
Inclination (degrees)
Orbital Period (minutes)
Azimuth
Elevation
Range (km)
Doppler Factor

Next 0 passes for location: London (51.5072 / 0.1276)

Sorry there are no passes over London.